Starlink 4522

operational
NORAD ID: 53388 Int'l Des: 2022-097 Owner: SPXS Country: US Constellation: starlink
LEOCIRCULAR

关于 Starlink 4522

正在加载描述...

实时位置

正在加载3D地球...

即将过境

高度历史

Altitude vs Time

uPlot chart will show altitude changes over time

两行轨道根数

1 53388U 22097A 25302.43560527 .00000352 00000-0 40174-4 0 9991
2 53388 53.2180 353.3405 0001287 92.5506 267.5634 15.08841155179037
Epoch: Oct 29, 2025 • Age: 13 hours

当前状态

高度 540.0 km
速度 7.59 km/s
星下点 5.66°N, 31.4°W
发射日期 Aug 10, 2022
运行时间 3.2 years
类型 internet

技术详情

分类 Payload
质量 297.00 kg
干质量 275.00 kg
总质量 297.00 kg
长度 0.20 m
直径 2.80 m
跨度 9.00 m
形状 Box + pan
制造商 SPXS
平台类型 Starlink
阶段状态 In Orbit
所有者/国家 SPXS/US

大型星座

Loading constellations...